Vorticity
3 13 4 9 1 -2 6 9 4 5 3 7 16 4 7 13 6 5 6 9 12 15 3 6 9 12 4 5 4 5 6 2 2 3 3 3 4 4 4 2 4 4 4
-2 17 14 5 8 -2 11 4 10 0 8 12 2 -0 -5 2 6 7 6 5 -1 -6 7 5 5 7 12 5 5 -0 2 3 4 4 3 4 4 3 5 4 3 3 3
7 13 9 10 5 10 19 5 4 29 53 48 -1 16 17 -2 3 0 -1 2 3 5 3 5 7 4 5 8 12 4 5 4 2 1 2 3 2 6 2 3 5 4 3
7 1 8 14 3 14 11 10 10 42 -4 14 16 33 4 -1 2 2 3 6 9 9 9 9 6 3 6 5 5 9 11 9 5 5 5 4 2 2 2 4 4 5 4
7 23 18 7 8 38 51 160 55 0 18 -4 -8 2 1 4 3 4 6 8 7 6 6 7 7 7 9 7 5 4 4 5 8 11 10 6 4 2 2 -1 1 3 4
9 23 11 -6 10 -20 19 -8 20 8 17 14 13 2 -10 2 5 8 9 9 8 8 7 8 7 7 7 7 7 7 8 6 4 3 4 8 11 10 5 2 2 2 2
6 24 19 11 33 -0 10 28 35 14 20 6 -7 -4 1 5 9 8 8 7 5 4 3 3 3 3 3 3 4 4 4 5 6 7 7 6 6 4 4 11 13 8 4
6 22 13 33 28 31 17 -11 4 -4 -3 -11 -4 4 7 9 7 8 6 4 3 3 3 3 3 3 3 3 3 3 3 3 3 3 3 3 4 6 6 7 5 7 10
9 6 -7 12 -12 -5 6 7 3 -0 7 5 7 7 6 8 7 7 5 4 4 3 3 3 3 3 4 4 4 4 4 4 5 4 4 3 3 3 4 4 4 6 6
9 11 10 4 11 -17 -4 -4 0 16 3 3 11 8 5 7 6 5 5 4 4 4 4 4 4 5 5 6 6 6 6 5 5 5 6 6 6 5 5 4 4 4 4
8 9 8 7 8 11 4 3 1 4 3 4 4 6 5 5 5 5 4 5 5 5 5 6 6 7 7 6 5 5 5 5 5 5 5 5 5 5 4 4 4 4 5
12 2 8 10 1 8 -12 5 2 2 3 2 3 5 5 5 5 5 5 5 5 5 6 6 7 6 5 6 6 5 5 6 7 7 8 8 9 9 9 9 9 8 7
5 12 4 -4 -9 -0 5 5 3 3 3 3 3 5 4 5 5 6 5 5 5 6 7 7 6 5 6 5 4 5 6 7 6 7 6 6 6 6 7 7 7 7 8
5 17 4 10 8 9 6 6 4 4 3 4 3 3 4 4 6 6 5 5 6 6 8 7 6 6 5 4 4 6 7 6 6 6 7 7 7 7 7 6 6 7 6
6 6 11 10 6 4 6 7 5 2 2 4 4 3 4 4 6 6 5 5 6 7 7 7 6 6 4 4 6 6 6 6 6 6 5 6 6 6 6 5 6 7 7
8 6 7 9 10 6 4 6 9 3 6 5 4 5 5 4 8 7 6 6 6 6 7 7 6 6 5 5 6 6 6 6 5 5 5 5 5 5 5 5 5 6 6
8 8 6 7 7 9 7 6 8 6 6 3 5 4 5 4 6 6 6 6 6 7 7 7 7 5 5 4 5 5 6 6 6 6 6 6 6 6 6 5 5 5 6
7 7 6 5 6 6 5 5 8 6 6 3 3 6 6 5 6 6 6 6 7 7 7 7 7 7 6 5 5 5 5 5 6 6 6 6 6 6 6 6 6 6 6
9 8 6 6 6 6 5 6 6 7 6 5 5 5 5 6 5 6 6 6 6 7 6 7 7 6 5 5 4 5 5 5 5 6 6 6 6 6 6 6 6 6 6
10 10 7 6 5 5 5 5 6 6 6 5 5 4 3 4 6 6 6 6 7 7 7 6 6 6 6 5 4 4 5 5 5 6 7 7 7 7 7 7 6 6 6
3 7 9 8 8 6 5 5 5 5 7 7 6 6 4 4 6 6 6 6 6 7 6 6 7 7 7 6 6 6 5 5 5 5 6 7 7 6 6 5 5 6 6
9 7 4 6 8 8 8 7 6 5 5 5 5 6 6 4 5 6 6 5 6 7 7 6 6 7 7 7 6 5 5 6 5 5 6 6 6 6 6 6 5 6 6
14 2 5 8 8 5 7 8 8 7 5 5 5 6 10 7 6 7 7 7 7 7 8 7 6 7 6 7 7 5 8 5 5 5 6 6 5 4 5 6 8 8 8
17 18 12 5 5 7 6 7 8 7 6 7 7 6 7 7 6 6 7 7 6 7 7 7 7 7 7 6 6 6 7 6 6 6 4 3 5 9 9 9 8 7 8
19 22 16 11 9 9 8 7 7 7 7 8 7 4 5 7 5 4 6 6 6 7 7 8 7 7 6 7 7 7 6 6 6 5 3 5 9 9 8 8 8 8 8
18 16 18 18 18 13 10 9 8 8 8 11 7 9 8 7 8 9 7 7 7 8 7 7 7 7 6 6 6 7 7 6 6 5 5 6 8 8 8 8 8 8 7
Height
3129 3129 3129 3129 3130 3131 3131 3131 3132 3134 3136 3136 3137 3137 3137 3141 3145 3148 3149 3149 3150 3150 3152 3152 3153 3154 3154 3155 3156 3155 3156 3157 3158 3159 3160 3160 3160 3160 3161 3162 3163 3163 3164
3127 3127 3127 3127 3128 3129 3129 3130 3130 3132 3132 3132 3132 3133 3135 3140 3145 3148 3148 3149 3149 3150 3151 3152 3153 3153 3154 3155 3156 3157 3158 3159 3160 3160 3161 3161 3162 3162 3162 3163 3163 3164 3164
3124 3124 3124 3124 3125 3125 3126 3126 3129 3131 3127 3126 3129 3130 3132 3137 3142 3147 3148 3148 3149 3150 3150 3151 3152 3153 3154 3155 3156 3157 3158 3159 3160 3161 3162 3162 3163 3163 3164 3164 3164 3165 3166
3121 3121 3120 3120 3121 3121 3122 3122 3124 3129 3123 3126 3127 3131 3136 3140 3144 3145 3146 3147 3148 3148 3150 3151 3152 3153 3154 3155 3156 3157 3158 3159 3159 3160 3161 3162 3163 3164 3165 3165 3166 3166 3167
3119 3116 3116 3117 3117 3114 3115 3100 3117 3122 3126 3125 3129 3133 3135 3139 3142 3144 3145 3145 3147 3147 3149 3150 3151 3152 3153 3154 3155 3156 3157 3158 3158 3158 3159 3161 3163 3164 3165 3165 3166 3166 3166
3115 3113 3114 3115 3113 3106 3115 3110 3103 3117 3122 3126 3131 3133 3132 3136 3139 3142 3143 3145 3146 3147 3148 3150 3150 3151 3152 3153 3154 3155 3156 3157 3157 3158 3159 3160 3161 3162 3163 3164 3164 3165 3165
3112 3112 3111 3112 3113 3114 3116 3114 3113 3118 3122 3129 3131 3131 3134 3137 3138 3140 3142 3144 3145 3146 3147 3148 3149 3149 3151 3152 3153 3154 3155 3156 3156 3157 3157 3159 3159 3161 3161 3162 3162 3163 3163
3111 3111 3111 3112 3112 3112 3117 3118 3120 3120 3124 3129 3129 3131 3134 3136 3137 3139 3141 3142 3144 3145 3146 3146 3148 3148 3150 3151 3152 3152 3154 3154 3155 3156 3156 3157 3157 3158 3159 3160 3160 3160 3161
3110 3111 3111 3112 3113 3115 3116 3119 3122 3124 3127 3127 3128 3130 3132 3134 3136 3138 3140 3142 3144 3144 3145 3146 3146 3148 3148 3149 3150 3151 3152 3152 3154 3155 3155 3155 3156 3156 3157 3157 3157 3158 3158
3110 3108 3109 3110 3112 3112 3116 3118 3121 3124 3124 3125 3125 3128 3129 3132 3134 3137 3138 3140 3141 3142 3143 3143 3144 3145 3146 3147 3148 3149 3149 3150 3151 3152 3153 3153 3153 3153 3154 3154 3155 3155 3155
3108 3108 3108 3108 3109 3110 3114 3118 3120 3122 3122 3122 3124 3127 3128 3131 3132 3135 3137 3138 3139 3140 3141 3142 3142 3143 3144 3145 3145 3146 3147 3147 3148 3149 3150 3150 3151 3151 3150 3151 3151 3151 3152
3105 3106 3107 3109 3111 3111 3114 3116 3118 3119 3120 3121 3124 3126 3126 3129 3131 3132 3134 3135 3136 3137 3138 3139 3140 3140 3141 3142 3142 3143 3144 3145 3145 3145 3146 3147 3147 3147 3148 3147 3148 3148 3148
3103 3105 3106 3106 3108 3110 3112 3114 3116 3118 3119 3121 3121 3124 3126 3127 3128 3129 3131 3132 3133 3134 3135 3136 3136 3137 3137 3138 3139 3139 3141 3142 3142 3143 3143 3142 3142 3143 3144 3145 3145 3145 3144
3099 3100 3103 3105 3105 3106 3108 3111 3113 3115 3116 3119 3120 3121 3123 3124 3125 3127 3128 3128 3130 3131 3132 3132 3133 3133 3134 3135 3135 3136 3137 3137 3138 3139 3139 3138 3138 3139 3140 3140 3140 3140 3140
3094 3096 3097 3100 3101 3102 3102 3104 3108 3109 3111 3114 3117 3118 3119 3120 3121 3122 3124 3125 3126 3126 3127 3128 3128 3129 3130 3131 3131 3131 3132 3133 3133 3133 3134 3134 3134 3134 3134 3134 3135 3136 3135
3089 3091 3092 3094 3096 3098 3100 3101 3102 3105 3107 3109 3111 3113 3114 3116 3117 3119 3120 3121 3121 3122 3123 3123 3124 3125 3126 3126 3127 3127 3128 3128 3128 3128 3129 3128 3129 3129 3128 3128 3128 3128 3128
3083 3084 3086 3088 3090 3092 3094 3094 3097 3100 3103 3105 3107 3108 3110 3111 3112 3113 3115 3116 3116 3118 3119 3119 3120 3120 3121 3122 3123 3124 3123 3124 3124 3124 3123 3123 3123 3123 3123 3122 3122 3122 3121
3076 3077 3079 3080 3082 3084 3086 3089 3091 3093 3095 3098 3100 3102 3104 3106 3107 3108 3110 3111 3112 3113 3114 3114 3115 3115 3116 3116 3117 3119 3118 3118 3119 3118 3118 3117 3117 3116 3116 3116 3115 3115 3114
3069 3070 3072 3074 3076 3078 3079 3081 3083 3086 3088 3090 3093 3095 3097 3099 3100 3102 3103 3104 3106 3107 3108 3109 3109 3109 3109 3110 3111 3112 3111 3111 3112 3111 3111 3110 3110 3109 3109 3108 3108 3107 3106
3062 3062 3063 3065 3067 3070 3073 3075 3077 3079 3081 3083 3085 3087 3090 3091 3094 3095 3097 3098 3099 3100 3102 3103 3103 3103 3103 3104 3104 3106 3105 3105 3105 3104 3104 3104 3104 3103 3102 3101 3100 3099 3098
3054 3055 3056 3058 3060 3062 3065 3067 3070 3072 3075 3077 3079 3080 3081 3083 3086 3087 3089 3091 3092 3093 3094 3096 3097 3097 3098 3098 3098 3098 3097 3098 3098 3097 3097 3097 3096 3095 3093 3092 3091 3090 3088
3044 3047 3049 3051 3053 3054 3056 3059 3062 3065 3066 3068 3070 3073 3075 3076 3078 3079 3081 3083 3085 3086 3088 3089 3089 3090 3091 3091 3091 3091 3091 3092 3091 3090 3090 3090 3088 3086 3085 3083 3081 3080 3079
3033 3036 3038 3042 3044 3046 3049 3051 3053 3055 3057 3060 3063 3065 3067 3069 3071 3072 3074 3076 3078 3079 3081 3082 3083 3083 3084 3084 3084 3084 3084 3084 3084 3084 3083 3082 3081 3079 3076 3074 3071 3069 3067
3023 3024 3026 3029 3032 3034 3038 3041 3046 3048 3050 3054 3055 3055 3057 3059 3062 3064 3066 3068 3070 3071 3073 3074 3075 3076 3076 3076 3076 3076 3076 3076 3075 3076 3075 3074 3073 3071 3067 3063 3060 3057 3056
3013 3014 3015 3017 3020 3023 3028 3032 3035 3037 3041 3044 3045 3047 3048 3051 3053 3056 3057 3059 3061 3063 3064 3065 3066 3067 3067 3067 3067 3068 3068 3067 3067 3066 3067 3066 3065 3062 3059 3055 3052 3049 3046
3005 3005 3006 3006 3008 3013 3017 3021 3024 3028 3032 3034 3037 3039 3041 3043 3045 3047 3049 3050 3052 3053 3055 3056 3057 3058 3058 3059 3059 3059 3059 3058 3057 3056 3056 3056 3055 3056 3052 3048 3044 3041 3038